Location: Namasale
(1.5000°N, 32.6167°E)
Time: 01:14:10
(UTC+00:00)

STPSAT 2 (USA 217) - Pass Details

Date: 09 April 2020
Orbit: 622 x 646 km, 72.0° (Epoch: 16 May)

Event Time Altitude Azimuth Distance (km) Brightness Sun altitude
Rises 16:57:38 0° 189° (S) 2,907 8.0 -16.3°
Reaches altitude 10° 16:59:55 10° 186° (S) 1,996 7.1 -16.8°
Maximum altitude 17:04:20 64° 105° (ESE) 690 4.5 -17.9°
Drops below altitude 10° 17:08:44 10° 23° (NNE) 1,982 7.0 -19.0°
Sets 17:11:00 0° 20° (NNE) 2,885 7.9 -19.6°
